Regional Weather Roundup
Issued by NWS

Home | Current Version | Previous Version | Graphics & Text | Print | Product List | Glossary Off
Versions: 1 2 3 4 5 6 7 8 9 10 11 12 13 14 15 16 17 18 19 20 21 22 23 24 25 26 27 28 29 30 31 32 33 34 35 36 37 38 39 40 41 42 43 44 45 46 47 48 49 50

000
ASUS43 KLSX 201859
RWRMO

WEATHER SUMMARY FOR MISSOURI
NATIONAL WEATHER SERVICE SPRINGFIELD MO
200 PM CDT WED AUG 20 2014

NOTE: "FAIR" INDICATES FEW OR NO CLOUDS BELOW 12,000 FEET WITH NO
       SIGNIFICANT WEATHER AND/OR OBSTRUCTIONS TO VISIBILITY.
       CURRENT SKY AND/OR WEATHER CONDITIONS ARE NOT AVAILABLE FOR
       CHILLICOTHE AND FARMINGTON.

MOZ001>031-035>038-043-044-053-054-202000-
...NORTHERN AND WESTERN MISSOURI...

CITY           SKY/WX    TMP DP  RH WIND       PRES   REMARKS
KANSAS CTY INT PTSUNNY   91  72  53 S12       29.89F HX  98
KANSAS C DTWN  MOSUNNY   93  70  46 S12       29.87F HX  99
LEE`S SUMMIT   MOSUNNY   90  70  51 S12G21    29.91S HX  95
ST JOSEPH      MOSUNNY   89  74  60 S10       29.86F HX  98

$$
MOZ066>068-077>081-088>096-101>105-202000-
...SOUTHWEST MISSOURI...

CITY           SKY/WX    TMP DP  RH WIND       PRES   REMARKS
SPRINGFIELD    MOSUNNY   92  65  40 SW16      29.97F HX  94
JOPLIN         PTSUNNY   92  67  43 SW20      29.96R HX  95

$$
MOZ032>034-039>042-045>050-055>058-069>072-202000-
...CENTRAL MISSOURI...

CITY           SKY/WX    TMP DP  RH WIND       PRES   REMARKS
COLUMBIA       MOSUNNY   88  72  58 VRB3      29.96S HX  94
JEFFERSON CITY PTSUNNY   90  70  51 S5        29.94F HX  95
ROLLA          PTSUNNY   88  69  53 VRB6      29.97F HX  92
SEDALIA        MOSUNNY   91  71  51 VRB6      29.94F HX  97
OSAGE BEACH    MOSUNNY   93  68  43 SW5       29.95F HX  97

$$
MOZ051-052-059>065-202000-
...EAST CENTRAL MISSOURI...

CITY           SKY/WX    TMP DP  RH WIND       PRES   REMARKS
ST LOUIS INTL  CLOUDY    84  73  69 E16       29.98S HX  90
SPIRIT OF STL  CLOUDY    87  73  62 CALM      29.95F HX  94
ST CHARLES     CLOUDY    81  72  74 SE13      29.96S

$$
MOZ072>076-082>087-097>100-106>115-202000-
...SOUTH CENTRAL AND SOUTHEAST MISSOURI...

CITY           SKY/WX    TMP DP  RH WIND       PRES   REMARKS
CAPE GIRARDEAU MOSUNNY   92  74  55 CALM      29.97F HX 101
FARMINGTON     PTSUNNY   91  70  49 CALM      30.00F HX  97
POPLAR BLUFF   MOSUNNY   92  72  51 S9        29.97F HX  99
WEST PLAINS    MOSUNNY   92  68  45 S8        30.02F HX  96

$$



USA.gov is the U.S. government's official web portal to all federal, state and local government web resources and services.